Orbital Elements
Epoch 2011 Mar. 20.0 TT = JDT 2455640.5
T 2011 Mar. 9.82872 TT MPCW
q 0.0534107 (2000.0) P Q
n 0.18556339 Peri. 56.70582 -0.18386422 -0.96994096
a 3.0442094 Node 44.78072 +0.80974565 -0.24139123
e 0.9824550 Incl. 13.07898 +0.55723060 +0.03073784
P 5.31
From 182 observations 2011 Mar. 9-2016 July 2. Nongravitational parameters
A1 = +0.00, A2 = +0.0015.
|